Theta_e
319 318 316 313 317 314 314 317 315 315 315 318 316 317 316 313 311 311 310 309 310 311 312 315 316 317 317 318 320 322 326 327 329 327 326 327 328 329 329 329 329 328 329 329
320 319 313 312 315 317 316 317 316 315 314 316 315 315 313 311 311 311 311 309 309 310 310 312 314 316 317 318 318 320 322 324 327 329 328 327 326 326 327 327 327 328 328 329
315 313 313 315 317 320 319 316 315 314 316 315 315 312 309 310 311 310 309 309 309 309 310 310 312 315 316 316 317 317 318 320 323 326 327 326 325 324 325 325 326 326 326 327
317 313 313 314 316 318 319 317 314 316 315 313 312 306 301 307 307 312 310 309 309 310 309 309 311 313 316 316 315 315 315 317 320 324 325 325 324 323 324 324 324 324 324 324
315 314 313 314 314 316 314 316 318 315 316 316 313 315 310 311 311 310 310 309 308 309 309 309 309 312 313 313 312 312 313 315 317 322 324 324 323 323 324 323 323 323 323 323
312 312 312 312 312 315 313 315 316 315 316 319 313 312 307 305 309 312 311 310 309 308 307 307 310 310 309 311 312 314 314 314 316 320 324 323 323 323 322 322 322 322 322 322
313 313 313 313 315 314 314 315 310 318 319 315 309 313 310 308 310 310 311 308 307 305 305 305 305 306 311 309 309 312 314 316 318 321 324 324 323 323 322 323 323 322 322 322
318 317 313 312 314 316 318 316 312 311 314 314 310 315 313 310 309 310 310 311 307 306 305 305 307 306 305 306 306 308 308 308 310 319 324 325 324 323 323 323 324 324 323 323
317 317 311 312 313 314 318 319 311 310 303 308 311 310 310 310 309 309 308 307 307 306 304 302 302 304 304 305 305 306 307 307 307 308 308 312 322 325 324 324 324 324 324 324
311 316 310 312 312 313 315 313 318 315 314 313 312 311 311 312 310 308 309 307 304 303 301 301 301 302 303 303 303 304 304 304 304 304 305 306 308 308 311 317 323 324 324 324
312 312 311 312 316 316 316 317 315 315 316 315 312 310 306 309 310 310 308 304 303 302 301 300 300 301 302 302 302 302 303 303 304 303 303 303 303 305 306 308 308 310 316 323
313 315 310 313 311 312 314 315 315 316 313 316 310 311 307 306 306 308 305 304 302 302 301 300 300 301 302 302 303 302 301 301 301 304 303 302 302 301 302 303 304 306 307 309
313 313 316 314 311 310 315 314 313 313 310 315 317 314 307 308 306 305 305 304 304 303 302 301 301 300 301 301 300 301 301 301 301 301 303 303 302 301 300 300 300 302 304 306
311 312 314 313 310 310 315 314 313 314 317 315 314 312 309 308 307 305 305 305 305 304 304 303 301 301 300 298 298 297 296 296 297 299 299 300 300 300 299 299 299 299 300 301
311 312 310 310 309 311 313 313 313 315 315 315 314 312 311 308 307 307 305 304 304 303 302 301 300 298 296 295 294 293 293 293 293 294 295 294 295 296 297 297 298 299 298 299
310 312 309 309 310 310 309 312 313 314 314 313 312 311 309 307 307 306 305 305 305 303 300 296 295 294 293 292 291 290 290 290 291 292 291 291 291 293 293 294 296 296 297 296
310 311 311 312 309 310 311 310 311 313 313 313 314 312 310 305 308 308 306 305 304 299 295 293 291 290 290 289 287 287 287 287 288 288 288 288 289 290 290 290 292 293 294 294
310 310 311 309 308 313 310 306 309 311 311 311 312 310 310 306 301 297 301 302 296 293 291 288 287 287 285 284 284 284 284 284 285 284 284 285 285 287 288 289 290 291 292 293
306 308 311 310 308 305 309 305 307 309 310 308 309 310 304 299 299 294 290 289 288 287 285 284 283 283 281 281 280 281 281 282 280 280 281 282 283 285 287 288 288 290 291 292
306 307 307 311 310 310 306 297 289 304 311 291 290 300 302 302 309 297 287 285 283 282 281 280 279 280 279 279 277 279 278 278 277 277 279 280 281 283 285 287 287 288 290 291
306 306 308 306 308 306 289 287 289 313 303 285 285 288 297 302 292 287 283 281 280 279 279 276 277 277 277 276 275 276 276 275 275 275 276 277 278 280 284 285 286 287 288 290
307 307 308 306 307 307 283 289 300 290 283 282 281 283 285 284 282 281 280 279 277 276 276 275 275 275 275 273 273 274 274 272 272 273 274 275 276 278 282 284 285 286 287 289
304 291 298 288 292 281 281 281 281 281 279 278 278 279 280 280 279 278 277 276 275 274 273 272 272 273 272 271 270 271 270 270 270 271 271 273 275 276 278 281 283 284 286 288
287 279 289 287 281 278 278 278 277 277 276 276 276 276 276 277 276 276 275 274 273 272 271 270 270 270 270 268 268 267 268 268 268 269 270 271 273 273 275 277 281 283 285 286
275 277 280 281 280 278 275 275 275 275 274 274 274 273 273 274 273 272 272 271 270 269 268 268 268 267 267 266 266 266 265 266 266 267 268 270 270 271 272 274 279 281 282 283
273 272 277 279 274 276 274 272 273 272 272 272 272 271 271 270 269 269 269 268 267 267 266 266 265 265 264 264 264 265 264 264 264 265 266 267 268 268 270 273 274 276 279 281
Wind_Speed
7 7 17 19 13 1 6 5 7 2 3 3 7 9 20 10 5 9 10 8 10 11 17 27 27 23 23 21 21 22 25 29 30 32 34 33 39 39 41 41 41 40 38 36
7 24 9 9 9 7 3 5 5 3 3 2 5 11 13 10 8 9 11 10 12 8 10 20 25 25 22 23 22 21 24 25 29 33 36 30 24 32 40 41 44 45 43 41
19 4 17 11 12 14 15 11 3 1 1 1 5 14 9 7 5 6 8 10 8 11 12 10 18 26 22 22 23 23 26 28 30 31 32 29 29 26 25 34 39 43 43 43
16 20 9 5 15 16 15 8 6 5 3 5 2 11 9 2 7 6 9 9 9 9 9 8 12 18 23 25 22 23 25 27 29 31 31 33 30 28 35 36 34 36 37 39
15 12 18 9 17 16 7 8 14 5 5 2 5 3 4 2 5 6 8 9 9 11 9 9 12 23 24 21 21 20 20 22 26 29 33 36 34 32 36 28 33 36 36 36
26 3 14 14 10 18 7 7 5 3 4 9 18 9 23 9 8 5 6 9 9 8 9 8 19 18 17 17 15 15 17 19 20 24 29 33 34 34 27 28 30 33 33 35
16 8 2 7 7 6 9 11 3 7 8 14 9 8 22 1 3 7 6 9 10 7 8 8 8 12 7 9 10 9 8 8 9 14 23 29 33 34 30 31 27 28 29 32
13 11 19 5 8 9 20 16 6 9 6 9 7 11 10 8 13 20 16 19 7 7 4 5 2 5 9 10 13 17 20 20 16 7 9 19 25 29 30 31 31 29 31 33
10 11 6 6 7 17 12 16 8 5 2 3 5 7 8 8 7 9 10 6 8 4 7 7 8 9 11 14 16 17 17 17 18 17 14 8 7 16 24 28 30 32 33 34
5 7 7 19 6 11 13 10 7 7 7 7 4 4 9 2 7 6 7 6 6 5 6 6 7 10 12 15 15 17 17 18 17 16 15 12 10 7 8 15 22 27 31 32
3 3 3 13 17 19 6 10 7 3 4 6 3 7 8 13 7 7 7 8 9 8 6 6 7 13 16 18 20 21 22 22 22 22 20 18 16 13 11 11 13 17 23 28
9 4 5 13 15 20 22 19 17 7 9 6 1 9 3 7 7 8 9 8 6 7 6 6 8 10 14 16 17 20 22 22 21 20 22 23 23 23 20 18 16 17 19 20
15 5 8 3 2 1 14 18 17 17 2 13 9 9 5 5 6 8 10 8 7 7 7 6 7 9 12 14 16 16 19 21 22 22 19 22 24 26 26 25 23 19 18 21
19 14 7 14 2 7 10 20 18 20 14 13 14 17 13 4 8 8 6 7 8 7 7 6 6 7 8 9 11 12 14 18 21 20 20 20 22 23 25 26 27 25 23 21
17 22 24 23 9 4 11 22 26 23 26 17 21 18 24 13 11 12 13 8 8 7 6 4 4 4 5 10 15 19 21 19 20 20 21 22 23 23 24 26 28 28 28 26
17 15 20 21 23 19 6 18 20 25 24 25 20 12 21 9 7 7 11 9 8 7 6 4 7 12 12 17 18 19 20 21 20 21 21 23 25 26 26 27 29 30 30 30
15 10 15 17 28 25 24 26 21 19 22 25 22 27 15 7 14 15 10 9 11 7 6 6 7 9 10 11 12 14 17 17 17 19 21 24 26 27 24 24 24 25 28 27
11 17 10 10 4 15 12 11 14 20 18 28 20 16 15 8 6 8 4 9 10 8 6 6 8 10 12 13 15 18 17 18 20 22 24 24 22 23 25 24 25 27 27 27
6 4 7 13 14 4 1 7 14 17 25 16 19 28 7 11 7 7 8 12 10 9 9 10 10 9 10 13 16 14 14 16 19 22 24 23 25 22 23 24 26 28 29 30
7 7 7 4 15 15 12 6 5 0 15 7 8 7 11 13 9 5 7 9 10 12 11 10 9 7 8 12 17 12 15 15 18 22 24 25 27 23 23 23 27 27 27 29
8 4 13 16 10 5 2 12 7 11 4 7 9 11 4 6 5 15 11 11 13 11 10 11 11 10 11 14 17 13 14 17 21 24 25 26 25 25 21 23 24 26 28 27
10 7 7 7 7 12 13 3 3 4 10 9 12 12 13 13 13 12 11 10 10 10 10 12 11 9 10 14 15 15 15 19 22 23 25 27 27 26 20 23 24 24 24 25
1 5 1 4 3 7 10 15 11 12 10 12 12 11 12 12 12 10 9 9 10 11 10 11 10 10 10 15 15 16 19 21 24 27 27 25 26 24 23 22 23 23 21 21
4 10 3 5 7 9 14 13 13 12 13 12 12 12 12 11 11 10 9 9 11 13 14 14 14 13 15 17 18 19 20 22 24 24 24 25 23 27 25 23 20 20 20 22
4 9 4 3 8 9 13 14 11 12 13 12 11 12 13 11 11 10 9 10 13 14 15 14 14 15 18 21 21 24 22 22 23 22 23 23 22 25 27 25 21 23 22 22
6 5 3 2 7 5 8 9 12 12 12 11 10 10 14 15 11 13 9 12 14 15 16 17 18 19 23 26 27 27 24 20 21 23 22 23 24 25 25 25 32 25 23 23
Wind_Direction
173 199 215 199 204 33 157 183 198 232 235 197 238 247 266 261 236 256 255 252 259 263 264 270 268 260 263 259 254 255 254 256 247 240 234 234 240 242 246 247 249 250 251 251
191 227 199 160 187 207 184 207 212 281 277 190 318 273 254 258 238 217 233 230 243 251 270 272 268 261 251 252 259 258 258 260 251 243 240 230 237 242 246 250 250 249 250 250
206 269 174 170 191 200 220 215 165 147 10 314 355 289 241 245 245 196 224 224 226 225 247 261 267 265 265 254 256 264 268 265 257 252 241 235 236 243 242 246 250 251 250 250
222 220 164 174 197 188 221 175 148 175 97 245 123 274 241 182 243 234 231 242 245 245 243 250 264 271 271 278 288 281 274 266 259 254 237 232 225 228 239 242 248 251 254 251
213 174 202 204 212 187 214 143 200 163 165 32 234 286 256 49 285 271 268 245 240 234 233 249 252 266 279 286 302 295 282 270 264 254 245 237 230 234 246 244 249 253 257 257
216 177 183 204 169 184 138 79 77 130 157 240 235 196 274 245 225 214 228 247 245 255 259 259 273 285 300 309 299 289 285 274 267 263 256 241 238 241 240 245 244 251 254 258
216 202 224 151 149 153 163 145 160 214 209 234 167 173 243 169 232 176 227 268 270 257 263 279 307 322 346 29 37 45 28 354 310 273 261 254 246 248 246 250 251 251 253 256
196 202 207 184 184 185 195 184 172 198 202 234 146 219 241 218 236 256 244 252 269 271 282 280 311 75 61 50 52 54 53 49 39 7 288 263 258 254 255 258 260 257 259 259
208 222 156 197 183 166 187 210 182 105 52 70 211 288 297 243 228 249 243 274 289 317 106 109 89 72 60 59 55 51 52 47 42 39 35 17 299 273 270 271 270 269 268 265
220 224 187 197 149 206 183 160 190 206 197 224 237 259 231 204 243 249 216 163 137 128 112 93 74 73 71 65 60 57 52 44 32 26 22 15 7 347 305 287 280 278 276 270
190 225 209 151 200 193 160 191 209 172 197 206 227 246 201 233 211 196 156 168 158 148 124 114 98 84 79 67 56 50 45 43 42 32 23 14 4 353 337 322 312 302 294 283
197 189 197 203 201 204 200 203 196 192 213 217 208 242 238 233 212 167 179 173 160 143 136 113 93 71 52 53 51 39 30 22 20 32 29 24 17 7 357 345 331 319 308 300
186 215 187 170 294 306 217 212 206 223 56 203 215 240 216 192 159 181 170 183 169 157 144 116 75 54 40 26 25 35 26 13 8 5 16 10 7 5 2 357 346 335 322 311
194 230 232 229 229 137 199 214 212 210 223 223 221 242 244 234 203 179 168 176 176 175 147 114 81 60 42 31 20 13 21 21 8 7 1 9 359 357 353 351 352 351 339 325
209 227 234 240 248 210 206 216 215 213 219 217 226 219 245 216 195 187 186 173 159 141 121 96 113 117 44 32 20 6 13 7 4 357 3 359 354 356 354 350 351 352 350 345
211 231 228 239 235 230 216 222 221 218 228 232 240 237 237 218 172 189 193 171 156 155 143 100 53 41 24 14 4 352 0 360 358 358 355 352 351 354 352 349 352 350 349 345
209 219 229 238 234 234 238 230 218 226 227 226 224 231 226 180 191 201 199 176 166 143 112 76 55 43 23 9 350 344 351 353 356 354 349 351 351 351 345 344 344 343 341 339
196 209 225 224 198 222 233 258 211 214 213 233 232 243 229 196 101 51 22 154 118 110 92 62 45 30 15 354 352 351 358 359 1 355 354 355 346 338 337 336 338 338 336 333
170 148 246 237 232 262 239 202 204 197 234 223 216 236 118 124 97 40 41 75 86 75 61 51 38 27 7 0 350 347 351 3 357 353 350 344 341 332 332 333 333 332 331 329
171 234 204 283 224 227 245 119 13 318 249 23 342 329 166 152 179 166 108 85 78 67 53 33 19 20 8 354 350 347 357 359 354 344 341 339 343 334 327 326 326 325 325 321
191 203 224 242 247 264 354 316 304 163 241 44 36 356 254 163 56 112 98 82 76 67 49 21 18 11 360 350 351 352 354 354 341 338 335 338 339 338 324 323 324 324 322 320
172 178 202 216 228 240 342 340 229 55 57 50 53 36 69 84 82 78 78 75 65 53 42 22 8 355 354 356 356 351 349 339 336 333 334 337 341 341 329 323 321 323 322 320
129 349 49 24 34 63 39 68 52 65 75 50 52 42 61 64 55 55 58 50 44 35 26 15 2 346 353 356 357 346 339 337 335 332 331 331 335 334 330 321 320 320 321 321
46 10 75 219 68 56 54 57 57 58 57 56 48 47 51 63 47 42 37 28 20 10 8 1 0 352 341 348 349 345 340 338 332 329 326 327 328 328 328 323 312 312 314 314
339 329 5 98 110 104 57 38 40 44 43 45 49 46 48 42 38 21 23 16 6 358 357 355 349 341 338 342 343 347 344 340 335 329 325 322 323 323 320 318 309 306 297 294
1 0 351 54 13 54 66 44 37 43 33 28 39 38 48 39 27 14 12 3 357 349 347 349 346 341 336 338 340 346 346 338 335 330 326 322 320 320 319 317 315 306 294 296